| time (UTC) | temp F | wind direction | speed MPH | gust MPH | rain 1hr in | rain 24hr in | rain mn in | humidity % | barometer mb |
| 20260507072504 | 39 | 106 | 0.0 | 0.0 | 0.00 | 0.00 | 0.00 | 99 | 1013.4 |
| 20260507072001 | 39 | 106 | 0.0 | 0.0 | 0.00 | 0.00 | 0.00 | 99 | 1013.4 |
| 20260507071458 | 39 | 106 | 0.0 | 0.0 | 0.00 | 0.00 | 0.00 | 99 | 1013.2 |
| 20260507070954 | 40 | 166 | 0.0 | 0.0 | 0.00 | 0.00 | 0.00 | 99 | 1013.3 |
| 20260507070452 | 40 | 131 | 0.0 | 1.0 | 0.00 | 0.00 | 0.00 | 99 | 1013.3 |
| 20260507065948 | 40 | 106 | 0.0 | 1.0 | 0.00 | 0.00 | 0.00 | 99 | 1013.3 |
| 20260507065445 | 40 | 106 | 0.0 | 2.0 | 0.00 | 0.00 | 0.00 | 99 | 1013.3 |
| 20260507064942 | 40 | 151 | 0.0 | 1.0 | 0.00 | 0.00 | 0.00 | 99 | 1013.4 |
| 20260507064440 | 40 | 82 | 0.0 | 1.0 | 0.00 | 0.00 | 0.00 | 99 | 1013.5 |
| 20260507063938 | 41 | 120 | 0.0 | 1.0 | 0.00 | 0.00 | 0.00 | 99 | 1013.6 |
| 20260507063435 | 41 | 90 | 0.0 | 0.0 | 0.00 | 0.00 | 0.00 | 99 | 1013.4 |
| 20260507062932 | 40 | 74 | 0.0 | 0.0 | 0.00 | 0.00 | 0.00 | 99 | 1013.4 |
| 20260507062429 | 41 | 106 | 0.0 | 0.0 | 0.00 | 0.00 | 0.00 | 99 | 1013.6 |
| 20260507061926 | 41 | 106 | 0.0 | 0.0 | 0.00 | 0.00 | 0.00 | 99 | 1013.7 |
| 20260507061424 | 41 | 106 | 0.0 | 0.0 | 0.00 | 0.00 | 0.00 | 99 | 1013.5 |
| 20260507060922 | 41 | 131 | 0.0 | 1.0 | 0.00 | 0.00 | 0.00 | 99 | 1013.5 |
| 20260507060419 | 41 | 120 | 0.0 | 0.0 | 0.00 | 0.00 | 0.00 | 99 | 1013.6 |
| 20260507055916 | 41 | 120 | 1.0 | 1.0 | 0.00 | 0.00 | 0.00 | 99 | 1013.5 |
| 20260507055411 | 41 | 74 | 0.0 | 0.0 | 0.00 | 0.00 | 0.00 | 99 | 1013.6 |
| 20260507054908 | 41 | 114 | 0.0 | 0.0 | 0.00 | 0.00 | 0.00 | 99 | 1013.6 |
| 20260507054404 | 41 | 114 | 0.0 | 1.0 | 0.00 | 0.00 | 0.00 | 99 | 1013.6 |
| 20260507053901 | 42 | 165 | 0.0 | 1.0 | 0.00 | 0.00 | 0.00 | 99 | 1013.6 |
| 20260507053359 | 42 | 165 | 0.0 | 1.0 | 0.00 | 0.00 | 0.00 | 99 | 1013.5 |
| 20260507052858 | 42 | 140 | 0.0 | 2.0 | 0.00 | 0.00 | 0.00 | 99 | 1013.6 |
| 20260507052354 | 41 | 82 | 0.0 | 1.0 | 0.00 | 0.00 | 0.00 | 99 | 1013.8 |
| 20260507051851 | 41 | 74 | 0.0 | 0.0 | 0.00 | 0.00 | 0.00 | 99 | 1013.8 |
| 20260507051349 | 42 | 114 | 0.0 | 1.0 | 0.00 | 0.00 | 0.00 | 99 | 1013.7 |
| 20260507050845 | 42 | 106 | 0.0 | 0.0 | 0.00 | 0.00 | 0.00 | 99 | 1013.7 |
| 20260507050342 | 42 | 106 | 0.0 | 1.0 | 0.00 | 0.00 | 0.00 | 99 | 1013.9 |
| 20260507045839 | 42 | 60 | 1.0 | 1.0 | 0.00 | 0.00 | 0.00 | 99 | 1013.6 |
| 20260507045335 | 42 | 74 | 0.0 | 1.0 | 0.00 | 0.00 | 0.00 | 99 | 1013.9 |
| 20260507044833 | 42 | 114 | 0.0 | 1.0 | 0.00 | 0.00 | 0.00 | 99 | 1013.7 |
| 20260507044329 | 42 | 173 | 0.0 | 1.0 | 0.00 | 0.00 | 0.00 | 99 | 1013.8 |
| 20260507043825 | 42 | 160 | 0.0 | 1.0 | 0.00 | 0.00 | 0.00 | 99 | 1013.9 |
| 20260507043322 | 42 | 33 | 0.0 | 0.0 | 0.00 | 0.00 | 0.00 | 99 | 1013.6 |
| 20260507042818 | 42 | 120 | 0.0 | 1.0 | 0.00 | 0.00 | 0.00 | 99 | 1013.6 |
| 20260507042314 | 43 | 111 | 0.0 | 0.0 | 0.00 | 0.00 | 0.00 | 99 | 1013.7 |
| 20260507041811 | 43 | 195 | 0.0 | 1.0 | 0.00 | 0.00 | 0.00 | 99 | 1013.7 |
| 20260507041308 | 43 | 106 | 0.0 | 0.0 | 0.00 | 0.00 | 0.00 | 99 | 1013.6 |
| 20260507040805 | 43 | 106 | 0.0 | 0.0 | 0.00 | 0.00 | 0.00 | 99 | 1013.5 |
| 20260507040301 | 43 | 106 | 0.0 | 0.0 | 0.00 | 0.00 | 0.00 | 99 | 1013.5 |
| 20260507035757 | 44 | 106 | 0.0 | 0.0 | 0.00 | 0.65 | 0.65 | 99 | 1013.6 |
| 20260507035252 | 44 | 106 | 0.0 | 0.0 | 0.00 | 0.65 | 0.65 | 99 | 1013.5 |
| 20260507034750 | 44 | 106 | 0.0 | 0.0 | 0.00 | 0.65 | 0.65 | 99 | 1013.6 |
| 20260507034247 | 44 | 106 | 0.0 | 0.0 | 0.00 | 0.65 | 0.65 | 99 | 1013.4 |
| 20260507033745 | 44 | 106 | 0.0 | 0.0 | 0.00 | 0.65 | 0.65 | 99 | 1013.6 |
| 20260507033242 | 44 | 106 | 0.0 | 0.0 | 0.00 | 0.65 | 0.65 | 99 | 1013.6 |
| 20260507032739 | 44 | 106 | 0.0 | 0.0 | 0.00 | 0.65 | 0.65 | 98 | 1013.6 |
| 20260507032235 | 44 | 106 | 0.0 | 0.0 | 0.00 | 0.65 | 0.65 | 97 | 1013.8 |
| 20260507031732 | 44 | 106 | 0.0 | 0.0 | 0.00 | 0.65 | 0.65 | 97 | 1013.6 |
| 20260507031229 | 44 | 106 | 0.0 | 0.0 | 0.00 | 0.65 | 0.65 | 97 | 1013.9 |
| 20260507030726 | 45 | 106 | 0.0 | 0.0 | 0.00 | 0.65 | 0.65 | 97 | 1013.9 |
| 20260507030223 | 45 | 106 | 0.0 | 0.0 | 0.00 | 0.65 | 0.65 | 96 | 1013.7 |
| 20260507025720 | 45 | 106 | 0.0 | 0.0 | 0.00 | 0.65 | 0.65 | 96 | 1013.8 |
| 20260507025217 | 45 | 106 | 0.0 | 0.0 | 0.00 | 0.65 | 0.65 | 96 | 1013.7 |
| 20260507024716 | 46 | 145 | 0.0 | 1.0 | 0.00 | 0.65 | 0.65 | 96 | 1013.7 |
| 20260507024213 | 46 | 148 | 0.0 | 1.0 | 0.00 | 0.65 | 0.65 | 96 | 1013.6 |
| 20260507023708 | 46 | 106 | 0.0 | 1.0 | 0.00 | 0.65 | 0.65 | 96 | 1013.6 |
| 20260507023205 | 46 | 81 | 0.0 | 0.0 | 0.00 | 0.65 | 0.65 | 95 | 1013.5 |
| 20260507022702 | 47 | 81 | 0.0 | 0.0 | 0.00 | 0.65 | 0.65 | 95 | 1013.7 |
| 20260507022158 | 46 | 81 | 0.0 | 0.0 | 0.00 | 0.65 | 0.65 | 95 | 1013.7 |
| 20260507021654 | 47 | 81 | 0.0 | 1.0 | 0.00 | 0.65 | 0.65 | 94 | 1013.6 |
| 20260507021149 | 47 | 145 | 0.0 | 0.0 | 0.00 | 0.65 | 0.65 | 94 | 1013.7 |
| 20260507020649 | 47 | 145 | 0.0 | 0.0 | 0.00 | 0.65 | 0.65 | 94 | 1013.5 |
| 20260507020144 | 47 | 145 | 0.0 | 0.0 | 0.00 | 0.65 | 0.65 | 92 | 1013.2 |
| 20260507015643 | 47 | 145 | 0.0 | 0.0 | 0.00 | 0.65 | 0.65 | 91 | 1013.5 |
| 20260507015140 | 48 | 145 | 0.0 | 0.0 | 0.00 | 0.65 | 0.65 | 91 | 1013.2 |
| 20260507014636 | 48 | 203 | 0.0 | 1.0 | 0.00 | 0.65 | 0.65 | 90 | 1013.2 |
| 20260507014132 | 48 | 180 | 0.0 | 2.0 | 0.00 | 0.65 | 0.65 | 90 | 1013.3 |
| 20260507013629 | 48 | 151 | 0.0 | 1.0 | 0.00 | 0.65 | 0.65 | 90 | 1013.1 |
| 20260507013126 | 48 | 140 | 0.0 | 1.0 | 0.00 | 0.65 | 0.65 | 90 | 1013.1 |
| 20260507012624 | 49 | 172 | 0.0 | 1.0 | 0.00 | 0.65 | 0.65 | 90 | 1012.9 |
| 20260507012119 | 49 | 106 | 0.0 | 0.0 | 0.00 | 0.65 | 0.65 | 89 | 1012.8 |
| 20260507011618 | 50 | 165 | 0.0 | 0.0 | 0.00 | 0.65 | 0.65 | 89 | 1012.9 |
| 20260507011113 | 50 | 99 | 0.0 | 0.0 | 0.00 | 0.65 | 0.65 | 88 | 1013.0 |
| 20260507010608 | 51 | 99 | 0.0 | 0.0 | 0.00 | 0.65 | 0.65 | 86 | 1013.1 |
| 20260507010104 | 51 | 165 | 0.0 | 0.0 | 0.00 | 0.65 | 0.65 | 84 | 1012.9 |
| 20260507005602 | 51 | 165 | 0.0 | 0.0 | 0.00 | 0.65 | 0.65 | 84 | 1012.9 |
| 20260507005058 | 51 | 165 | 0.0 | 0.0 | 0.00 | 0.65 | 0.65 | 83 | 1012.8 |
| 20260507004555 | 52 | 165 | 0.0 | 1.0 | 0.00 | 0.65 | 0.65 | 82 | 1012.9 |
| 20260507004052 | 52 | 145 | 0.0 | 1.0 | 0.00 | 0.65 | 0.65 | 80 | 1012.8 |
| 20260507003548 | 53 | 106 | 0.0 | 1.0 | 0.00 | 0.65 | 0.65 | 79 | 1012.9 |
| 20260507003043 | 54 | 111 | 0.0 | 1.0 | 0.00 | 0.65 | 0.65 | 77 | 1012.8 |
| 20260507002540 | 54 | 74 | 0.0 | 1.0 | 0.00 | 0.65 | 0.65 | 70 | 1012.6 |
| 20260507002036 | 54 | 90 | 0.0 | 0.0 | 0.00 | 0.65 | 0.65 | 69 | 1012.6 |
| 20260507001533 | 55 | 90 | 0.0 | 1.0 | 0.00 | 0.65 | 0.65 | 69 | 1012.4 |
| 20260507001031 | 55 | 90 | 0.0 | 2.0 | 0.00 | 0.65 | 0.65 | 69 | 1012.6 |
| 20260507000526 | 56 | 90 | 0.0 | 1.0 | 0.00 | 0.65 | 0.65 | 68 | 1012.7 |
| 20260507000023 | 56 | 90 | 0.0 | 1.0 | 0.00 | 0.65 | 0.65 | 67 | 1012.1 |
| 20260506235520 | 56 | 97 | 0.0 | 2.0 | 0.00 | 0.65 | 0.65 | 67 | 1012.0 |
| 20260506235015 | 56 | 74 | 1.0 | 1.0 | 0.00 | 0.65 | 0.65 | 66 | 1012.4 |
| 20260506234513 | 56 | 106 | 0.0 | 2.0 | 0.00 | 0.65 | 0.65 | 68 | 1012.3 |
| 20260506234010 | 57 | 66 | 0.0 | 1.0 | 0.00 | 0.65 | 0.65 | 66 | 1012.1 |
| 20260506233506 | 56 | 112 | 0.0 | 2.0 | 0.00 | 0.65 | 0.65 | 66 | 1012.4 |
| 20260506233004 | 57 | 98 | 0.0 | 2.0 | 0.00 | 0.65 | 0.65 | 65 | 1012.3 |
| 20260506232459 | 57 | 90 | 0.0 | 2.0 | 0.00 | 0.65 | 0.65 | 66 | 1012.1 |
| 20260506231955 | 57 | 157 | 0.0 | 2.0 | 0.00 | 0.65 | 0.65 | 65 | 1011.9 |
| 20260506231453 | 58 | 57 | 0.0 | 2.0 | 0.00 | 0.65 | 0.65 | 63 | 1011.7 |
| 20260506230950 | 58 | 90 | 1.0 | 3.0 | 0.00 | 0.65 | 0.65 | 64 | 1012.1 |
| 20260506230446 | 58 | 114 | 0.0 | 3.0 | 0.00 | 0.65 | 0.65 | 63 | 1012.1 |
| 20260506225943 | 58 | 139 | 0.0 | 2.0 | 0.00 | 0.65 | 0.65 | 64 | 1012.1 |
| 20260506225441 | 58 | 66 | 1.0 | 2.0 | 0.00 | 0.65 | 0.65 | 64 | 1012.5 |
| 20260506224937 | 58 | 109 | 1.0 | 4.0 | 0.00 | 0.65 | 0.65 | 61 | 1012.3 |
| 20260506224434 | 59 | 144 | 0.0 | 2.0 | 0.00 | 0.65 | 0.65 | 61 | 1012.0 |
| 20260506223931 | 59 | 99 | 2.0 | 3.0 | 0.00 | 0.65 | 0.65 | 62 | 1012.3 |
| 20260506223426 | 59 | 172 | 0.0 | 3.0 | 0.00 | 0.65 | 0.65 | 59 | 1012.3 |
| 20260506222924 | 59 | 172 | 0.0 | 2.0 | 0.00 | 0.65 | 0.65 | 62 | 1012.4 |
| 20260506222420 | 59 | 151 | 0.0 | 1.0 | 0.00 | 0.65 | 0.65 | 62 | 1012.4 |
| 20260506221917 | 59 | 165 | 0.0 | 3.0 | 0.00 | 0.65 | 0.65 | 60 | 1012.4 |
| 20260506221414 | 59 | 203 | 0.0 | 2.0 | 0.00 | 0.65 | 0.65 | 61 | 1012.5 |
| 20260506220912 | 59 | 151 | 0.0 | 2.0 | 0.00 | 0.65 | 0.65 | 65 | 1012.6 |
| 20260506220407 | 59 | 71 | 1.0 | 2.0 | 0.00 | 0.65 | 0.65 | 64 | 1012.4 |
| 20260506215904 | 59 | 0 | 0.0 | 2.0 | 0.00 | 0.65 | 0.65 | 66 | 1012.6 |
| 20260506215400 | 59 | 171 | 2.0 | 2.0 | 0.00 | 0.65 | 0.65 | 61 | 1012.5 |
| 20260506214856 | 59 | 120 | 0.0 | 2.0 | 0.00 | 0.65 | 0.65 | 62 | 1012.5 |
| 20260506214353 | 60 | 172 | 0.0 | 2.0 | 0.00 | 0.65 | 0.65 | 65 | 1012.3 |
| 20260506213851 | 59 | 120 | 0.0 | 2.0 | 0.00 | 0.65 | 0.65 | 62 | 1012.4 |
| 20260506213348 | 60 | 105 | 0.0 | 1.0 | 0.00 | 0.65 | 0.65 | 61 | 1012.4 |
| 20260506212845 | 60 | 128 | 0.0 | 3.0 | 0.00 | 0.65 | 0.65 | 59 | 1012.3 |
| 20260506212341 | 60 | 129 | 0.0 | 2.0 | 0.00 | 0.65 | 0.65 | 63 | 1012.4 |
| 20260506211836 | 60 | 57 | 0.0 | 2.0 | 0.00 | 0.65 | 0.65 | 64 | 1011.9 |
| 20260506211332 | 60 | 66 | 0.0 | 3.0 | 0.00 | 0.65 | 0.65 | 63 | 1011.9 |
| 20260506210830 | 60 | 173 | 1.0 | 1.0 | 0.00 | 0.65 | 0.65 | 62 | 1011.9 |
| 20260506210327 | 60 | 180 | 0.0 | 2.0 | 0.00 | 0.65 | 0.65 | 62 | 1011.9 |
| 20260506205824 | 60 | 20 | 1.0 | 3.0 | 0.00 | 0.65 | 0.65 | 62 | 1011.9 |
| 20260506205320 | 60 | 109 | 0.0 | 1.0 | 0.00 | 0.65 | 0.65 | 62 | 1011.7 |
| 20260506204817 | 60 | 157 | 0.0 | 1.0 | 0.00 | 0.65 | 0.65 | 61 | 1012.0 |
| 20260506204314 | 60 | 65 | 0.0 | 2.0 | 0.00 | 0.65 | 0.65 | 63 | 1012.0 |
| 20260506203812 | 61 | 90 | 0.0 | 2.0 | 0.00 | 0.65 | 0.65 | 62 | 1012.0 |
| 20260506203309 | 61 | 54 | 1.0 | 2.0 | 0.00 | 0.65 | 0.65 | 64 | 1011.8 |
| 20260506202806 | 61 | 0 | 0.0 | 3.0 | 0.00 | 0.65 | 0.65 | 61 | 1011.9 |
| 20260506202306 | 61 | 148 | 2.0 | 2.0 | 0.00 | 0.65 | 0.65 | 61 | 1011.8 |
| 20260506201759 | 61 | 95 | 0.0 | 2.0 | 0.00 | 0.65 | 0.65 | 59 | 1011.9 |
| 20260506201256 | 61 | 20 | 0.0 | 2.0 | 0.00 | 0.65 | 0.65 | 62 | 1011.9 |
| 20260506200753 | 61 | 39 | 0.0 | 2.0 | 0.00 | 0.65 | 0.65 | 61 | 1011.7 |
| 20260506200249 | 61 | 114 | 1.0 | 3.0 | 0.00 | 0.65 | 0.65 | 62 | 1011.8 |
| 20260506195746 | 61 | 26 | 0.0 | 2.0 | 0.00 | 0.65 | 0.65 | 61 | 1012.0 |
| 20260506195242 | 61 | 96 | 0.0 | 2.0 | 0.00 | 0.65 | 0.65 | 60 | 1011.5 |
| 20260506194740 | 61 | 233 | 0.0 | 2.0 | 0.00 | 0.65 | 0.65 | 63 | 1011.9 |
| 20260506194236 | 62 | 68 | 0.0 | 3.0 | 0.00 | 0.65 | 0.65 | 62 | 1011.6 |
| 20260506193734 | 62 | 127 | 0.0 | 2.0 | 0.00 | 0.65 | 0.65 | 62 | 1011.6 |
| 20260506193230 | 62 | 68 | 2.0 | 4.0 | 0.00 | 0.65 | 0.65 | 63 | 1011.7 |
| 20260506192727 | 62 | 185 | 2.0 | 3.0 | 0.00 | 0.65 | 0.65 | 62 | 1011.4 |
| 20260506192224 | 63 | 49 | 2.0 | 3.0 | 0.00 | 0.65 | 0.65 | 62 | 1011.5 |
| 20260506191720 | 63 | 37 | 0.0 | 3.0 | 0.00 | 0.65 | 0.65 | 61 | 1011.3 |
| 20260506191216 | 63 | 90 | 0.0 | 3.0 | 0.00 | 0.65 | 0.65 | 60 | 1011.5 |
| 20260506190714 | 64 | 90 | 0.0 | 3.0 | 0.00 | 0.65 | 0.65 | 61 | 1011.4 |
| 20260506190210 | 64 | 249 | 0.0 | 2.0 | 0.00 | 0.65 | 0.65 | 61 | 1011.5 |
| 20260506185708 | 65 | 20 | 0.0 | 3.0 | 0.00 | 0.65 | 0.65 | 60 | 1011.4 |
| 20260506185204 | 66 | 82 | 0.0 | 4.0 | 0.00 | 0.65 | 0.65 | 63 | 1011.4 |
| 20260506184702 | 65 | 5 | 0.0 | 3.0 | 0.00 | 0.65 | 0.65 | 64 | 1011.1 |
| 20260506184159 | 64 | 90 | 0.0 | 3.0 | 0.00 | 0.65 | 0.65 | 65 | 1011.2 |
| 20260506183655 | 65 | 30 | 2.0 | 3.0 | 0.00 | 0.65 | 0.65 | 63 | 1011.4 |
| 20260506183151 | 64 | 90 | 0.0 | 2.0 | 0.00 | 0.65 | 0.65 | 61 | 1011.2 |
| 20260506182649 | 63 | 117 | 0.0 | 5.0 | 0.00 | 0.65 | 0.65 | 61 | 1011.4 |
| 20260506182146 | 65 | 90 | 0.0 | 2.0 | 0.00 | 0.65 | 0.65 | 58 | 1011.4 |
| 20260506181644 | 65 | 122 | 0.0 | 3.0 | 0.00 | 0.65 | 0.65 | 61 | 1011.7 |
| 20260506181140 | 65 | 7 | 1.0 | 4.0 | 0.00 | 0.65 | 0.65 | 60 | 1011.7 |
| 20260506180637 | 66 | 120 | 0.0 | 2.0 | 0.00 | 0.65 | 0.65 | 61 | 1011.5 |
| 20260506180134 | 65 | 151 | 0.0 | 2.0 | 0.00 | 0.65 | 0.65 | 58 | 1011.7 |
| 20260506175631 | 66 | 120 | 1.0 | 3.0 | 0.00 | 0.65 | 0.65 | 62 | 1011.5 |
| 20260506175126 | 67 | 170 | 2.0 | 2.0 | 0.00 | 0.65 | 0.65 | 60 | 1011.7 |
| 20260506174625 | 67 | 135 | 2.0 | 2.0 | 0.00 | 0.65 | 0.65 | 59 | 1012.1 |
| 20260506174121 | 66 | 176 | 2.0 | 3.0 | 0.00 | 0.65 | 0.65 | 61 | 1011.7 |
| 20260506173619 | 65 | 73 | 0.0 | 3.0 | 0.00 | 0.65 | 0.65 | 58 | 1011.5 |
| 20260506173116 | 66 | 28 | 2.0 | 2.0 | 0.00 | 0.65 | 0.65 | 63 | 1011.8 |
| 20260506172613 | 66 | 150 | 2.0 | 4.0 | 0.00 | 0.65 | 0.65 | 58 | 1011.9 |
| 20260506172109 | 66 | 90 | 0.0 | 3.0 | 0.00 | 0.65 | 0.65 | 63 | 1011.8 |
| 20260506171607 | 65 | 26 | 0.0 | 2.0 | 0.00 | 0.65 | 0.65 | 61 | 1011.8 |
| 20260506171104 | 64 | 120 | 0.0 | 3.0 | 0.00 | 0.65 | 0.65 | 60 | 1012.3 |
| 20260506170601 | 63 | 165 | 1.0 | 3.0 | 0.00 | 0.65 | 0.65 | 66 | 1012.0 |
| 20260506170053 | 65 | 90 | 2.0 | 3.0 | 0.00 | 0.65 | 0.65 | 64 | 1011.9 |
| 20260506165552 | 64 | 105 | 0.0 | 3.0 | 0.00 | 0.65 | 0.65 | 63 | 1011.9 |
| 20260506165047 | 64 | 160 | 3.0 | 3.0 | 0.00 | 0.65 | 0.65 | 63 | 1011.7 |
| 20260506164545 | 65 | 78 | 2.0 | 3.0 | 0.00 | 0.65 | 0.65 | 63 | 1011.9 |
| 20260506164042 | 65 | 103 | 3.0 | 3.0 | 0.00 | 0.65 | 0.65 | 64 | 1012.3 |
| 20260506163537 | 64 | 126 | 0.0 | 2.0 | 0.00 | 0.65 | 0.65 | 66 | 1012.3 |
| 20260506163033 | 65 | 75 | 1.0 | 3.0 | 0.00 | 0.65 | 0.65 | 60 | 1012.3 |
| 20260506162530 | 65 | 75 | 1.0 | 3.0 | 0.00 | 0.65 | 0.65 | 60 | 1012.0 |
| 20260506162027 | 65 | 148 | 2.0 | 3.0 | 0.00 | 0.65 | 0.65 | 61 | 1012.0 |
| 20260506161525 | 65 | 180 | 1.0 | 2.0 | 0.00 | 0.65 | 0.65 | 65 | 1011.8 |
| 20260506161022 | 64 | 96 | 0.0 | 4.0 | 0.00 | 0.65 | 0.65 | 65 | 1012.0 |
| 20260506160519 | 62 | 21 | 5.0 | 7.0 | 0.00 | 0.65 | 0.65 | 58 | 1012.0 |
| 20260506160016 | 64 | 165 | 0.0 | 3.0 | 0.00 | 0.65 | 0.65 | 65 | 1011.7 |
| 20260506155514 | 64 | 111 | 0.0 | 3.0 | 0.00 | 0.65 | 0.65 | 61 | 1011.9 |
| 20260506153646 | 64 | 101 | 2.0 | 3.0 | 0.00 | 0.65 | 0.65 | 63 | 1012.5 |
| 20260506153143 | 63 | 159 | 0.0 | 2.0 | 0.00 | 0.65 | 0.65 | 66 | 1012.3 |
| 20260506152640 | 62 | 213 | 0.0 | 3.0 | 0.00 | 0.65 | 0.65 | 66 | 1012.1 |
| 20260506152138 | 62 | 121 | 2.0 | 3.0 | 0.00 | 0.65 | 0.65 | 65 | 1012.1 |
| 20260506151636 | 62 | 78 | 0.0 | 3.0 | 0.00 | 0.65 | 0.65 | 64 | 1011.5 |
| 20260506151132 | 63 | 66 | 0.0 | 2.0 | 0.00 | 0.65 | 0.65 | 65 | 1011.7 |
| 20260506150629 | 63 | 186 | 0.0 | 3.0 | 0.00 | 0.65 | 0.65 | 67 | 1011.6 |
| 20260506150126 | 62 | 186 | 0.0 | 2.0 | 0.00 | 0.65 | 0.65 | 70 | 1011.4 |
| 20260506145623 | 62 | 276 | 0.0 | 2.0 | 0.00 | 0.65 | 0.65 | 73 | 1011.2 |
| 20260506145120 | 60 | 188 | 0.0 | 2.0 | 0.00 | 0.65 | 0.65 | 68 | 1011.3 |
| 20260506144617 | 58 | 328 | 2.0 | 2.0 | 0.00 | 0.65 | 0.65 | 71 | 1011.2 |
| 20260506144114 | 58 | 234 | 0.0 | 3.0 | 0.00 | 0.65 | 0.65 | 73 | 1010.9 |
| 20260506143612 | 58 | 346 | 0.0 | 1.0 | 0.00 | 0.65 | 0.65 | 74 | 1010.9 |
| 20260506143110 | 59 | 144 | 0.0 | 2.0 | 0.00 | 0.65 | 0.65 | 80 | 1010.9 |
| 20260506142608 | 57 | 90 | 0.0 | 0.0 | 0.00 | 0.65 | 0.65 | 82 | 1010.9 |
| 20260506142106 | 56 | 90 | 1.0 | 2.0 | 0.00 | 0.65 | 0.65 | 81 | 1010.9 |
| 20260506141603 | 55 | 139 | 2.0 | 3.0 | 0.00 | 0.65 | 0.65 | 82 | 1010.9 |
| 20260506141101 | 54 | 99 | 0.0 | 2.0 | 0.00 | 0.65 | 0.65 | 83 | 1011.1 |
| 20260506140558 | 54 | 99 | 0.0 | 3.0 | 0.00 | 0.65 | 0.65 | 84 | 1011.0 |
| 20260506140055 | 55 | 110 | 2.0 | 2.0 | 0.00 | 0.65 | 0.65 | 86 | 1010.9 |
| 20260506135552 | 54 | 82 | 0.0 | 2.0 | 0.00 | 0.65 | 0.65 | 86 | 1010.7 |
| 20260506135048 | 54 | 106 | 0.0 | 2.0 | 0.00 | 0.65 | 0.65 | 85 | 1010.8 |
| 20260506134545 | 54 | 114 | 0.0 | 2.0 | 0.00 | 0.65 | 0.65 | 87 | 1011.0 |
| 20260506134041 | 53 | 81 | 0.0 | 2.0 | 0.00 | 0.65 | 0.65 | 87 | 1010.8 |
| 20260506133538 | 52 | 90 | 2.0 | 2.0 | 0.00 | 0.65 | 0.65 | 87 | 1010.7 |
| 20260506133035 | 52 | 109 | 1.0 | 2.0 | 0.00 | 0.65 | 0.65 | 85 | 1010.8 |
| 20260506132532 | 51 | 82 | 0.0 | 2.0 | 0.00 | 0.65 | 0.65 | 87 | 1010.6 |
| 20260506132030 | 51 | 82 | 0.0 | 2.0 | 0.00 | 0.65 | 0.65 | 89 | 1010.4 |
| 20260506131527 | 50 | 120 | 0.0 | 2.0 | 0.00 | 0.65 | 0.65 | 89 | 1010.6 |
| 20260506131023 | 51 | 73 | 2.0 | 3.0 | 0.00 | 0.65 | 0.65 | 88 | 1010.6 |
| 20260506130520 | 51 | 151 | 0.0 | 2.0 | 0.00 | 0.65 | 0.65 | 88 | 1010.5 |
| 20260506130017 | 51 | 98 | 0.0 | 2.0 | 0.00 | 0.65 | 0.65 | 88 | 1010.5 |
| 20260506125516 | 51 | 83 | 1.0 | 2.0 | 0.00 | 0.65 | 0.65 | 88 | 1010.4 |
| 20260506125013 | 51 | 117 | 0.0 | 2.0 | 0.00 | 0.65 | 0.65 | 89 | 1010.3 |
| 20260506124511 | 50 | 98 | 0.0 | 2.0 | 0.00 | 0.65 | 0.65 | 92 | 1010.2 |
| 20260506124009 | 50 | 77 | 1.0 | 3.0 | 0.00 | 0.65 | 0.65 | 93 | 1010.3 |
| 20260506123506 | 49 | 57 | 1.0 | 2.0 | 0.00 | 0.65 | 0.65 | 95 | 1010.2 |
| 20260506123004 | 49 | 82 | 0.0 | 2.0 | 0.00 | 0.65 | 0.65 | 97 | 1010.0 |
| 20260506122500 | 49 | 90 | 0.0 | 2.0 | 0.00 | 0.65 | 0.65 | 97 | 1010.2 |
| 20260506121959 | 48 | 69 | 0.0 | 1.0 | 0.00 | 0.65 | 0.65 | 98 | 1010.1 |
| 20260506121455 | 47 | 120 | 0.0 | 2.0 | 0.00 | 0.65 | 0.65 | 99 | 1009.7 |
| 20260506120952 | 47 | 69 | 0.0 | 1.0 | 0.00 | 0.65 | 0.65 | 99 | 1009.7 |
| 20260506120450 | 47 | 106 | 0.0 | 1.0 | 0.00 | 0.65 | 0.65 | 99 | 1009.7 |
| 20260506115947 | 47 | 103 | 0.0 | 1.0 | 0.00 | 0.65 | 0.65 | 99 | 1009.7 |
| 20260506115445 | 47 | 114 | 0.0 | 1.0 | 0.00 | 0.65 | 0.65 | 99 | 1009.3 |
| 20260506114943 | 47 | 79 | 0.0 | 2.0 | 0.00 | 0.65 | 0.65 | 99 | 1009.3 |
| 20260506114440 | 47 | 74 | 0.0 | 0.0 | 0.00 | 0.65 | 0.65 | 99 | 1008.9 |
| 20260506113939 | 46 | 106 | 0.0 | 2.0 | 0.00 | 0.65 | 0.65 | 99 | 1009.0 |
| 20260506113436 | 46 | 60 | 0.0 | 1.0 | 0.00 | 0.65 | 0.65 | 99 | 1009.0 |
| 20260506112932 | 46 | 117 | 0.0 | 1.0 | 0.00 | 0.65 | 0.65 | 99 | 1008.7 |
| 20260506112430 | 46 | 114 | 0.0 | 0.0 | 0.00 | 0.65 | 0.65 | 99 | 1008.9 |
| 20260506111927 | 46 | 14 | 0.0 | 2.0 | 0.00 | 0.65 | 0.65 | 99 | 1008.9 |
| 20260506111425 | 46 | 77 | 0.0 | 2.0 | 0.00 | 0.65 | 0.65 | 99 | 1009.1 |
| 20260506110922 | 46 | 96 | 0.0 | 3.0 | 0.00 | 0.65 | 0.65 | 99 | 1008.8 |
| 20260506110420 | 46 | 63 | 0.0 | 2.0 | 0.00 | 0.65 | 0.65 | 99 | 1008.6 |
| 20260506105916 | 46 | 90 | 0.0 | 0.0 | 0.00 | 0.65 | 0.65 | 99 | 1008.5 |
| 20260506105413 | 46 | 15 | 0.0 | 0.0 | 0.00 | 0.65 | 0.65 | 99 | 1008.2 |
| 20260506104910 | 46 | 78 | 0.0 | 1.0 | 0.00 | 0.65 | 0.65 | 99 | 1008.3 |
| 20260506104408 | 46 | 69 | 0.0 | 1.0 | 0.00 | 0.65 | 0.65 | 99 | 1008.4 |
| 20260506103905 | 46 | 66 | 0.0 | 2.0 | 0.00 | 0.65 | 0.65 | 99 | 1008.5 |
| 20260506103403 | 46 | 23 | 0.0 | 2.0 | 0.00 | 0.65 | 0.65 | 99 | 1008.6 |
| 20260506102859 | 46 | 96 | 0.0 | 1.0 | 0.00 | 0.65 | 0.65 | 99 | 1008.5 |
| 20260506102358 | 46 | 98 | 0.0 | 1.0 | 0.00 | 0.65 | 0.65 | 99 | 1008.1 |
| 20260506101854 | 46 | 107 | 0.0 | 0.0 | 0.00 | 0.65 | 0.65 | 99 | 1007.8 |
| 20260506101350 | 46 | 147 | 0.0 | 2.0 | 0.00 | 0.65 | 0.65 | 99 | 1007.5 |
| 20260506100848 | 46 | 74 | 0.0 | 1.0 | 0.02 | 0.65 | 0.65 | 99 | 1007.5 |
| 20260506100347 | 46 | 117 | 0.0 | 1.0 | 0.02 | 0.65 | 0.65 | 99 | 1007.5 |
| 20260506095844 | 46 | 96 | 0.0 | 2.0 | 0.00 | 0.64 | 0.64 | 99 | 1007.5 |
| 20260506095342 | 45 | 66 | 0.0 | 2.0 | 0.00 | 0.64 | 0.64 | 99 | 1007.3 |
| 20260506094838 | 45 | 23 | 0.0 | 0.0 | 0.00 | 0.64 | 0.64 | 99 | 1007.6 |
| 20260506094337 | 46 | 35 | 0.0 | 1.0 | 0.00 | 0.64 | 0.64 | 99 | 1007.9 |
| 20260506093835 | 45 | 29 | 0.0 | 2.0 | 0.00 | 0.64 | 0.64 | 99 | 1008.0 |
| 20260506093332 | 45 | 180 | 0.0 | 1.0 | 0.00 | 0.64 | 0.64 | 99 | 1007.5 |
| 20260506092830 | 45 | 180 | 0.0 | 2.0 | 0.00 | 0.64 | 0.64 | 99 | 1007.1 |
| 20260506092327 | 45 | 26 | 1.0 | 3.0 | 0.00 | 0.64 | 0.64 | 99 | 1007.1 |
| 20260506091824 | 46 | 140 | 0.0 | 1.0 | 0.00 | 0.64 | 0.64 | 99 | 1007.0 |
| 20260506091322 | 45 | 84 | 0.0 | 0.0 | 0.00 | 0.64 | 0.64 | 99 | 1007.0 |
| 20260506090819 | 45 | 162 | 0.0 | 2.0 | 0.00 | 0.64 | 0.64 | 99 | 1007.0 |
| 20260506090316 | 45 | 159 | 0.0 | 2.0 | 0.00 | 0.64 | 0.64 | 99 | 1007.2 |
| 20260506085813 | 45 | 111 | 0.0 | 1.0 | 0.02 | 0.64 | 0.64 | 99 | 1007.1 |
| 20260506085309 | 46 | 162 | 0.0 | 2.0 | 0.00 | 0.64 | 0.64 | 99 | 1007.6 |
| 20260506084806 | 46 | 68 | 0.0 | 3.0 | 0.00 | 0.64 | 0.64 | 99 | 1007.4 |
| 20260506084302 | 46 | 186 | 0.0 | 2.0 | 0.02 | 0.64 | 0.64 | 99 | 1007.4 |
| 20260506083759 | 45 | 151 | 0.0 | 2.0 | 0.02 | 0.64 | 0.64 | 99 | 1006.9 |
| 20260506083257 | 45 | 53 | 1.0 | 2.0 | 0.00 | 0.63 | 0.63 | 99 | 1007.0 |
| 20260506082754 | 45 | 82 | 0.0 | 3.0 | 0.00 | 0.63 | 0.63 | 99 | 1007.0 |
| 20260506082249 | 45 | 170 | 2.0 | 2.0 | 0.02 | 0.63 | 0.63 | 99 | 1006.8 |
| 20260506081747 | 45 | 161 | 0.0 | 3.0 | 0.02 | 0.63 | 0.63 | 99 | 1006.9 |
| 20260506081244 | 45 | 114 | 1.0 | 2.0 | 0.05 | 0.63 | 0.63 | 99 | 1006.7 |
| 20260506080743 | 46 | 150 | 2.0 | 3.0 | 0.02 | 0.63 | 0.63 | 99 | 1006.8 |
| 20260506080239 | 45 | 175 | 1.0 | 3.0 | 0.02 | 0.62 | 0.62 | 99 | 1006.8 |
| 20260506073223 | 46 | 84 | 1.0 | 2.0 | 0.07 | 0.58 | 0.58 | 99 | 1006.9 |